Hourly Weather Alins

Today, 4 March, Thursday

Time Temperature Precipitation Wind Pressure Humidity
00:00 +3°C° 0 mm 1 mps 644 mmHg 89%
01:00 +3°C° 0 mm 1 mps 643 mmHg 87%
02:00 +3°C° 0 mm 1 mps 643 mmHg 85%
03:00 +3°C° 0 mm 1 mps 642 mmHg 83%
04:00 +2°C° 0 mm 1 mps 642 mmHg 82%
05:00 +2°C° 0 mm 1 mps 642 mmHg 82%
06:00 +2°C° 0 mm 1 mps 641 mmHg 82%
07:00 +4°C° 0 mm 1 mps 642 mmHg 79%
08:00 +5°C° 0 mm 1 mps 642 mmHg 76%
09:00 +6°C° 0 mm 0 mps 643 mmHg 73%
10:00 +8°C° 0 mm 1 mps 643 mmHg 70%
11:00 +9°C° 0 mm 1 mps 643 mmHg 66%
12:00 +10°C° 0 mm 1 mps 643 mmHg 65%
13:00 +10°C° 0.1 mm 1 mps 642 mmHg 66%
14:00 +10°C° 0.1 mm 1 mps 642 mmHg 66%
15:00 +10°C° 0.1 mm 1 mps 641 mmHg 67%
16:00 +8°C° 0.1 mm 1 mps 640 mmHg 74%
17:00 +7°C° 0.1 mm 1 mps 640 mmHg 81%
18:00 +6°C° 0.1 mm 1 mps 639 mmHg 88%
19:00 +5°C° 0 mm 0 mps 639 mmHg 89%
20:00 +4°C° 0 mm 0 mps 639 mmHg 90%
21:00 +4°C° 0 mm 0 mps 640 mmHg 91%
22:00 +4°C° 0 mm 0 mps 640 mmHg 91%
23:00 +4°C° 0 mm 0 mps 639 mmHg 92%

Tomorrow, 5 March, Friday

Time Temperature Precipitation Wind Pressure Humidity
00:00 +4°C° 0 mm 0 mps 639 mmHg 92%
01:00 +4°C° 0 mm 0 mps 639 mmHg 92%
02:00 +4°C° 0 mm 0 mps 639 mmHg 92%
03:00 +3°C° 0 mm 0 mps 638 mmHg 93%
04:00 +4°C° 0 mm 1 mps 638 mmHg 92%
05:00 +3°C° 0 mm 1 mps 638 mmHg 91%
06:00 +3°C° 0 mm 1 mps 638 mmHg 90%
07:00 +4°C° 0 mm 1 mps 638 mmHg 85%
08:00 +6°C° 0 mm 1 mps 639 mmHg 80%
09:00 +7°C° 0 mm 1 mps 639 mmHg 75%
10:00 +8°C° 0.1 mm 1 mps 640 mmHg 72%
11:00 +9°C° 0.1 mm 1 mps 640 mmHg 70%
12:00 +9°C° 0.1 mm 1 mps 640 mmHg 67%
13:00 +9°C° 0.6 mm 1 mps 640 mmHg 69%
14:00 +9°C° 0.6 mm 1 mps 639 mmHg 71%
15:00 +9°C° 0.6 mm 1 mps 639 mmHg 73%
16:00 +8°C° 0.6 mm 1 mps 639 mmHg 77%
17:00 +7°C° 0.6 mm 1 mps 639 mmHg 82%
18:00 +5°C° 0.6 mm 1 mps 638 mmHg 87%
19:00 +5°C° 0.4 mm 1 mps 639 mmHg 88%
20:00 +5°C° 0.4 mm 1 mps 639 mmHg 89%
21:00 +4°C° 0.4 mm 1 mps 639 mmHg 90%
22:00 +4°C° 0.7 mm 1 mps 640 mmHg 91%
23:00 +4°C° 0.7 mm 1 mps 640 mmHg 92%

Day after tomorrow, 6 March, Saturday

Time Temperature Precipitation Wind Pressure Humidity
00:00 +3°C° 0.7 mm 1 mps 640 mmHg 93%
01:00 +3°C° 0.6 mm 1 mps 640 mmHg 93%
02:00 +3°C° 0.6 mm 1 mps 640 mmHg 93%
03:00 +2°C° 0.6 mm 0 mps 640 mmHg 93%
04:00 +2°C° 0.1 mm 0 mps 640 mmHg 93%
05:00 +2°C° 0.1 mm 0 mps 640 mmHg 93%
06:00 +2°C° 0.1 mm 0 mps 640 mmHg 93%
07:00 +2°C° 0.1 mm 0 mps 641 mmHg 91%
08:00 +3°C° 0.1 mm 0 mps 641 mmHg 90%
09:00 +3°C° 0.1 mm 0 mps 642 mmHg 88%
10:00 +5°C° 0.2 mm 1 mps 642 mmHg 86%
11:00 +6°C° 0.2 mm 1 mps 642 mmHg 84%
12:00 +6°C° 0.2 mm 1 mps 643 mmHg 82%
13:00 +6°C° 0.6 mm 1 mps 642 mmHg 82%
14:00 +6°C° 0.6 mm 1 mps 642 mmHg 82%
15:00 +5°C° 0.6 mm 2 mps 642 mmHg 82%
16:00 +6°C° 0.5 mm 1 mps 642 mmHg 86%
17:00 +5°C° 0.5 mm 1 mps 641 mmHg 89%
18:00 +4°C° 0.5 mm 1 mps 641 mmHg 93%
19:00 +3°C° 0.3 mm 0 mps 641 mmHg 94%
20:00 +2°C° 0.3 mm 0 mps 641 mmHg 94%
21:00 +2°C° 0.3 mm 0 mps 641 mmHg 95%
22:00 +2°C° 0.2 mm 0 mps 642 mmHg 95%
23:00 +2°C° 0.2 mm 0 mps 642 mmHg 95%

7 March, Sunday

Time Temperature Precipitation Wind Pressure Humidity
00:00 +2°C° 0.2 mm 0 mps 642 mmHg 95%
01:00 +2°C° 0.1 mm 0 mps 641 mmHg 94%
02:00 +1°C° 0.1 mm 0 mps 641 mmHg 94%
03:00 +1°C° 0.1 mm 0 mps 640 mmHg 94%
04:00 +1°C° 0 mm 0 mps 640 mmHg 94%
05:00 +2°C° 0 mm 1 mps 640 mmHg 94%
06:00 +2°C° 0 mm 1 mps 640 mmHg 93%
07:00 +2°C° 0 mm 0 mps 640 mmHg 89%
08:00 +3°C° 0 mm 0 mps 641 mmHg 84%
09:00 +4°C° 0 mm 0 mps 641 mmHg 79%
10:00 +6°C° 0.2 mm 1 mps 641 mmHg 76%
11:00 +6°C° 0.2 mm 1 mps 641 mmHg 74%
12:00 +7°C° 0.2 mm 1 mps 641 mmHg 72%
13:00 +7°C° 0.6 mm 1 mps 641 mmHg 73%
14:00 +7°C° 0.6 mm 1 mps 640 mmHg 74%
15:00 +7°C° 0.6 mm 1 mps 639 mmHg 75%
16:00 +5°C° 0.5 mm 1 mps 639 mmHg 79%
17:00 +4°C° 0.5 mm 1 mps 639 mmHg 83%
18:00 +2°C° 0.5 mm 0 mps 638 mmHg 87%
19:00 +2°C° 0.3 mm 0 mps 638 mmHg 88%
20:00 +3°C° 0.3 mm 1 mps 638 mmHg 88%
21:00 +2°C° 0.3 mm 1 mps 638 mmHg 89%
22:00 +2°C° 0.2 mm 1 mps 638 mmHg 90%
23:00 +1°C° 0.2 mm 0 mps 638 mmHg 90%

8 March, Monday

Time Temperature Precipitation Wind Pressure Humidity
00:00 +1°C° 0.2 mm 0 mps 638 mmHg 91%
01:00 0°C° 0.3 mm 0 mps 638 mmHg 92%
02:00 0°C° 0.3 mm 0 mps 637 mmHg 93%
03:00 +1°C° 0.3 mm 1 mps 637 mmHg 94%
04:00 +1°C° 0.4 mm 1 mps 637 mmHg 94%
05:00 +1°C° 0.4 mm 1 mps 637 mmHg 94%
06:00 +1°C° 0.4 mm 1 mps 637 mmHg 94%
07:00 +2°C° 0.6 mm 1 mps 637 mmHg 93%
08:00 +2°C° 0.6 mm 1 mps 638 mmHg 92%
09:00 +3°C° 0.6 mm 1 mps 638 mmHg 91%
10:00 +3°C° 0.5 mm 1 mps 638 mmHg 90%
11:00 +3°C° 0.5 mm 1 mps 638 mmHg 89%
12:00 +4°C° 0.5 mm 1 mps 639 mmHg 88%
13:00 +4°C° 0.7 mm 1 mps 638 mmHg 86%
14:00 +4°C° 0.7 mm 1 mps 638 mmHg 85%
15:00 +4°C° 0.7 mm 1 mps 638 mmHg 83%
16:00 +3°C° 0.5 mm 1 mps 637 mmHg 85%
17:00 +2°C° 0.5 mm 1 mps 637 mmHg 87%
18:00 +1°C° 0.5 mm 1 mps 637 mmHg 89%
19:00 -1°C° 0.1 mm 2 mps 637 mmHg 88%
20:00 -1°C° 0.1 mm 2 mps 638 mmHg 87%
21:00 -2°C° 0.1 mm 2 mps 638 mmHg 86%
22:00 -2°C° 0 mm 2 mps 638 mmHg 86%
23:00 -3°C° 0 mm 2 mps 638 mmHg 86%

9 March, Tuesday

Time Temperature Precipitation Wind Pressure Humidity
00:00 -3°C° 0 mm 2 mps 638 mmHg 86%
01:00 -3°C° 0 mm 2 mps 637 mmHg 86%
02:00 -4°C° 0 mm 2 mps 637 mmHg 85%
03:00 -4°C° 0 mm 2 mps 637 mmHg 85%
04:00 -4°C° 0 mm 2 mps 637 mmHg 85%
05:00 -4°C° 0 mm 2 mps 637 mmHg 84%
06:00 -5°C° 0 mm 2 mps 637 mmHg 84%
07:00 -3°C° 0 mm 2 mps 638 mmHg 80%
08:00 -1°C° 0 mm 2 mps 639 mmHg 76%
09:00 +1°C° 0 mm 2 mps 640 mmHg 72%
10:00 +2°C° 0 mm 2 mps 640 mmHg 68%
11:00 +4°C° 0 mm 2 mps 641 mmHg 64%
12:00 +5°C° 0 mm 2 mps 641 mmHg 59%
13:00 +5°C° 0 mm 2 mps 641 mmHg 59%
14:00 +5°C° 0 mm 2 mps 641 mmHg 59%
15:00 +4°C° 0 mm 3 mps 641 mmHg 59%
16:00 +3°C° 0 mm 2 mps 640 mmHg 65%
17:00 +1°C° 0 mm 2 mps 640 mmHg 72%
18:00 -2°C° 0 mm 2 mps 639 mmHg 78%
19:00 -3°C° 0 mm 2 mps 639 mmHg 74%
20:00 -4°C° 0 mm 2 mps 640 mmHg 71%
21:00 -4°C° 0 mm 2 mps 640 mmHg 67%
22:00 -4°C° 0 mm 2 mps 640 mmHg 60%
23:00 -4°C° 0 mm 2 mps 640 mmHg 54%
Show more